User: anonymous   Login
Location: Brno
(49.2000°N, 16.6330°E)
Time: 20:11:41
(UTC+01:00)
Language:

Meteor 1-4 Rocket - Orbit

View from above orbital plane
View from above orbital plane
View from above satellite
View from above satellite

Ground track
Ground track

The orbit data is extracted from the following two-line orbital elements,

1 04394U 70037B   15085.46738699  .00007358  00000-0  29644-3 0  9999
2 04394 081.2430 247.7956 0045116 016.6300 343.6400 15.23733524440635
Epoch (UTC): 26 March 2015 11:13:02
Eccentricity: 0.0045116
inclination: 81.2430°
perigee height: 463 km
apogee height: 525 km
right ascension of ascending node: 247.7956°
argument of perigee: 16.6300°
revolutions per day: 15.23733524
mean anomaly at epoch: 343.6400°
orbit number at epoch: 44063

The dashed part of the orbit path shows where the satellite is in the earth's shadow,  

DLR